CZ-4B DEB, 37580

Orbit data source: Space-Track

CZ-4B DEB, 37580 is space debris in SSO originally from a launch on Mon, 10 May 1999 UTC launched from the Taiyaun Space Center, China (TSC). Debris objects in space refer to the collection of defunct objects orbiting the Earth. Examples of debris include non-operational satellites, rocket bodies, and fragments generated from explosions, collisions, or faulty payload assembly.

Loading next visibility...
Identifier
37580, 1999-025EKD
Orbit
SSO
Country
Flag of CNCN / PRC
Related business
Manufacturer
Unknown
Mission
Spacecraft
Bus & Motor
Unknown
Mass
Unknown
Launch date (UTC)
Icon of a cake. It is the launch day of the satellite!1999-05-10 (27 years ago)
Launch vehicle
Unknown
Launch site
Taiyaun Space Center, China (TSC)
Object type
Payload
Rocket body
Debris
Shape & HBR
Unknown shape, 0.1 m
Radar Cross Section
Small (<0.1 m²)

Expand to show TLE details & history
Last TLE update: 16 hours ago

TLE from 16 hours ago
0 CZ-4B DEB
1 37580U 99025EKD 26129.90968955  .00000570  00000-0  33085-3 0  9993
2 37580  98.8090 170.2302 0124615 152.2868 334.4844 14.08714685172368
Epoch: 2026-05-09T21:49Z
TLE epoch observation values (Epoch: 2026-05-09T21:49:57.177Z)
Latitude
53.03904°
Longitude
166.84203°
Altitude
791.143 km
Speed
7.505 km/s
True Right ascension
00h 08m 12s
True Declination
52° 52' 28"
Sunlit
Object was in daylight at epoch
Visualization orbit readout
Latitude
Unknown
Longitude
Unknown
Altitude
Unknown
Speed
Unknown
Apparent Right ascension
Unknown
Apparent Declination
Unknown
Sunlit
N/A
Visualization observer readout
Local Sidereal Time
22:12:27
Azimuth
Unknown
Elevation
Unknown
Doppler factor
Unknown
Orbital elements
Apogee altitude
951.161 km
Perigee altitude
770.741 km
Semi-major axis
7,239.088 km
Eccentricity
0.01246
Inclination
98.809°
RAAN
170.2302°
Arg. of periapsis
152.2868°
True anomaly
333.86053°
Mean anomaly
334.4844°
Eccentric anomaly
334.17335°
Mean motion
3.52385 °/min
Orbital period
102.16 mins
BSTAR
0.00033085
Loading maneuver chart data...
Computing Atmospheric mass density...

Documentation

Showing up to 5 results
|